Simultaneous Nadir Overpasses (SNOs) Predictions

Prediction of SNOs between GOES-14 and NPP Satellite Orbit:

Table of predicted SNOs for the next 14.0 days since TLE Epoch: 1/23/2022
Index Date Time (GOES-14) GOES-14 Lat,Lon NPP Lat,Lon Distance(km) Time Diff (sec)
1 01/25/2022 08:24:15 0.00,-104.60 0.09,-105.03 48.26 80
2 01/26/2022 08:08:08 0.00,-104.60 -0.90,-100.49 469.18 80
3 01/27/2022 20:30:02 -0.00,-104.29 -0.33,-105.77 168.82 80
4 01/28/2022 20:08:35 -0.01,-104.29 0.67,-101.23 348.10 80
5 01/30/2022 08:30:21 0.01,-104.60 0.45,-106.50 217.40 80
6 01/31/2022 08:14:15 0.02,-104.60 -0.55,-101.96 299.93 80
7 02/01/2022 20:36:08 -0.02,-104.29 -0.67,-107.25 337.10 80
8 02/02/2022 20:14:42 -0.01,-104.29 0.33,-102.71 179.85 80
9 02/04/2022 08:36:28 0.01,-104.60 0.79,-107.98 385.96 80
10 02/05/2022 08:20:23 0.01,-104.61 -0.26,-103.46 131.95 80
